Hourly Weather Skierniewice

Today, 8 July, Wednesday

Time Temperature Precipitation Wind Pressure Humidity
00:00 +12°C° 0 mm 2 mps 750 mmHg 79%
01:00 +12°C° 0 mm 2 mps 750 mmHg 77%
02:00 +11°C° 0 mm 3 mps 750 mmHg 76%
03:00 +11°C° 0 mm 3 mps 750 mmHg 75%
04:00 +12°C° 0 mm 3 mps 750 mmHg 74%
05:00 +13°C° 0 mm 4 mps 749 mmHg 75%
06:00 +14°C° 0 mm 5 mps 749 mmHg 75%
07:00 +15°C° 0 mm 5 mps 749 mmHg 75%
08:00 +14°C° 0.1 mm 5 mps 749 mmHg 74%
09:00 +14°C° 0.1 mm 4 mps 749 mmHg 74%
10:00 +14°C° 0.1 mm 4 mps 749 mmHg 73%
11:00 +15°C° 0.1 mm 5 mps 749 mmHg 72%
12:00 +15°C° 0.1 mm 5 mps 749 mmHg 71%
13:00 +16°C° 0.1 mm 6 mps 749 mmHg 69%
14:00 +16°C° 0 mm 6 mps 749 mmHg 68%
15:00 +17°C° 0 mm 5 mps 749 mmHg 67%
16:00 +17°C° 0 mm 5 mps 749 mmHg 65%
17:00 +16°C° 0.1 mm 5 mps 749 mmHg 70%
18:00 +15°C° 0.1 mm 4 mps 749 mmHg 76%
19:00 +14°C° 0.1 mm 3 mps 749 mmHg 81%
20:00 +14°C° 0.1 mm 3 mps 749 mmHg 84%
21:00 +13°C° 0.1 mm 4 mps 750 mmHg 87%
22:00 +12°C° 0.1 mm 4 mps 750 mmHg 90%
23:00 +12°C° 0 mm 3 mps 750 mmHg 91%

Tomorrow, 9 July, Thursday

Time Temperature Precipitation Wind Pressure Humidity
00:00 +12°C° 0 mm 3 mps 750 mmHg 92%
01:00 +11°C° 0 mm 3 mps 751 mmHg 94%
02:00 +11°C° 0 mm 3 mps 751 mmHg 94%
03:00 +10°C° 0 mm 3 mps 751 mmHg 95%
04:00 +10°C° 0 mm 3 mps 751 mmHg 96%
05:00 +11°C° 0 mm 3 mps 751 mmHg 92%
06:00 +13°C° 0 mm 3 mps 751 mmHg 88%
07:00 +14°C° 0 mm 3 mps 751 mmHg 83%
08:00 +16°C° 0.1 mm 3 mps 752 mmHg 78%
09:00 +18°C° 0.1 mm 3 mps 752 mmHg 72%
10:00 +19°C° 0.1 mm 3 mps 752 mmHg 67%
11:00 +20°C° 0.3 mm 3 mps 752 mmHg 65%
12:00 +20°C° 0.3 mm 4 mps 751 mmHg 62%
13:00 +21°C° 0.3 mm 4 mps 751 mmHg 60%
14:00 +21°C° 0.1 mm 3 mps 751 mmHg 60%
15:00 +21°C° 0.1 mm 3 mps 750 mmHg 60%
16:00 +21°C° 0.1 mm 3 mps 750 mmHg 59%
17:00 +20°C° 0 mm 3 mps 750 mmHg 64%
18:00 +20°C° 0 mm 2 mps 750 mmHg 69%
19:00 +19°C° 0 mm 2 mps 750 mmHg 73%
20:00 +18°C° 0.1 mm 2 mps 750 mmHg 77%
21:00 +17°C° 0.1 mm 2 mps 750 mmHg 80%
22:00 +17°C° 0.1 mm 2 mps 750 mmHg 83%
23:00 +17°C° 0.1 mm 3 mps 749 mmHg 85%

Day after tomorrow, 10 July, Friday

Time Temperature Precipitation Wind Pressure Humidity
00:00 +17°C° 0.1 mm 3 mps 749 mmHg 88%
01:00 +17°C° 0.1 mm 3 mps 749 mmHg 90%
02:00 +16°C° 0 mm 3 mps 748 mmHg 92%
03:00 +16°C° 0 mm 3 mps 748 mmHg 93%
04:00 +16°C° 0 mm 3 mps 748 mmHg 94%
05:00 +17°C° 0 mm 3 mps 748 mmHg 91%
06:00 +19°C° 0 mm 4 mps 748 mmHg 87%
07:00 +20°C° 0 mm 4 mps 748 mmHg 84%
08:00 +22°C° 0.6 mm 4 mps 748 mmHg 78%
09:00 +23°C° 0.6 mm 5 mps 747 mmHg 73%
10:00 +26°C° 0.6 mm 6 mps 747 mmHg 67%
11:00 +27°C° 0.3 mm 6 mps 747 mmHg 64%
12:00 +27°C° 0.3 mm 6 mps 747 mmHg 61%
13:00 +28°C° 0.3 mm 6 mps 747 mmHg 58%
14:00 +28°C° 0.2 mm 5 mps 747 mmHg 59%
15:00 +28°C° 0.2 mm 5 mps 747 mmHg 59%
16:00 +28°C° 0.2 mm 4 mps 746 mmHg 60%
17:00 +27°C° 0.2 mm 4 mps 746 mmHg 65%
18:00 +26°C° 0.2 mm 3 mps 746 mmHg 70%
19:00 +25°C° 0.2 mm 2 mps 746 mmHg 74%
20:00 +24°C° 0.5 mm 3 mps 746 mmHg 79%
21:00 +22°C° 0.5 mm 3 mps 746 mmHg 83%
22:00 +21°C° 0.5 mm 4 mps 746 mmHg 88%
23:00 +20°C° 0.9 mm 3 mps 747 mmHg 89%

11 July, Saturday

Time Temperature Precipitation Wind Pressure Humidity
00:00 +19°C° 0.9 mm 3 mps 747 mmHg 91%
01:00 +19°C° 0.9 mm 3 mps 747 mmHg 93%
02:00 +19°C° 2.3 mm 3 mps 747 mmHg 93%
03:00 +19°C° 2.3 mm 3 mps 747 mmHg 94%
04:00 +18°C° 2.3 mm 3 mps 748 mmHg 94%
05:00 +18°C° 0 mm 3 mps 748 mmHg 93%
06:00 +18°C° 0 mm 4 mps 749 mmHg 92%
07:00 +18°C° 0 mm 4 mps 749 mmHg 91%
08:00 +18°C° 0.1 mm 4 mps 750 mmHg 90%
09:00 +17°C° 0.1 mm 4 mps 750 mmHg 90%
10:00 +17°C° 0.1 mm 4 mps 751 mmHg 89%
11:00 +17°C° 0.9 mm 3 mps 751 mmHg 89%
12:00 +17°C° 0.9 mm 3 mps 751 mmHg 89%
13:00 +17°C° 0.9 mm 3 mps 752 mmHg 89%
14:00 +17°C° 0.8 mm 3 mps 752 mmHg 86%
15:00 +17°C° 0.8 mm 2 mps 752 mmHg 83%
16:00 +18°C° 0.8 mm 2 mps 753 mmHg 80%
17:00 +17°C° 0.1 mm 2 mps 753 mmHg 81%
18:00 +17°C° 0.1 mm 2 mps 753 mmHg 81%
19:00 +16°C° 0.1 mm 2 mps 754 mmHg 82%
20:00 +16°C° 0.1 mm 2 mps 754 mmHg 82%
21:00 +15°C° 0.1 mm 2 mps 754 mmHg 81%
22:00 +15°C° 0.1 mm 2 mps 754 mmHg 81%
23:00 +14°C° 0 mm 2 mps 754 mmHg 82%

12 July, Sunday

Time Temperature Precipitation Wind Pressure Humidity
00:00 +14°C° 0 mm 2 mps 754 mmHg 84%
01:00 +13°C° 0 mm 2 mps 754 mmHg 85%
02:00 +13°C° 0 mm 2 mps 754 mmHg 87%
03:00 +12°C° 0 mm 2 mps 754 mmHg 89%
04:00 +12°C° 0 mm 2 mps 754 mmHg 91%
05:00 +12°C° 0 mm 3 mps 755 mmHg 86%
06:00 +13°C° 0 mm 3 mps 755 mmHg 81%
07:00 +14°C° 0 mm 4 mps 755 mmHg 76%
08:00 +15°C° 0 mm 4 mps 755 mmHg 71%
09:00 +18°C° 0 mm 4 mps 755 mmHg 67%
10:00 +19°C° 0 mm 4 mps 755 mmHg 62%
11:00 +19°C° 0.1 mm 5 mps 755 mmHg 60%
12:00 +20°C° 0.1 mm 5 mps 755 mmHg 59%
13:00 +20°C° 0.1 mm 5 mps 755 mmHg 57%
14:00 +20°C° 0.1 mm 5 mps 755 mmHg 56%
15:00 +20°C° 0.1 mm 5 mps 755 mmHg 56%
16:00 +20°C° 0.1 mm 4 mps 755 mmHg 56%
17:00 +19°C° 0 mm 4 mps 755 mmHg 61%
18:00 +18°C° 0 mm 3 mps 755 mmHg 67%
19:00 +17°C° 0 mm 3 mps 755 mmHg 73%
20:00 +15°C° 0 mm 2 mps 755 mmHg 75%
21:00 +14°C° 0 mm 2 mps 756 mmHg 77%
22:00 +13°C° 0 mm 2 mps 756 mmHg 79%
23:00 +13°C° 0 mm 2 mps 756 mmHg 81%

13 July, Monday

Time Temperature Precipitation Wind Pressure Humidity
00:00 +12°C° 0 mm 2 mps 756 mmHg 82%
01:00 +12°C° 0 mm 2 mps 756 mmHg 84%
02:00 +10°C° 0 mm 2 mps 756 mmHg 85%
03:00 +10°C° 0 mm 2 mps 755 mmHg 87%
04:00 +10°C° 0 mm 2 mps 755 mmHg 88%
05:00 +11°C° 0 mm 3 mps 755 mmHg 84%
06:00 +13°C° 0 mm 3 mps 755 mmHg 79%
07:00 +16°C° 0 mm 3 mps 755 mmHg 75%
08:00 +17°C° 0.1 mm 4 mps 755 mmHg 72%
09:00 +18°C° 0.1 mm 4 mps 755 mmHg 69%
10:00 +19°C° 0.1 mm 5 mps 755 mmHg 65%
11:00 +19°C° 0.1 mm 5 mps 754 mmHg 65%
12:00 +19°C° 0.1 mm 5 mps 754 mmHg 65%
13:00 +20°C° 0.1 mm 5 mps 754 mmHg 65%
14:00 +20°C° 0.1 mm 4 mps 753 mmHg 65%
15:00 +20°C° 0.1 mm 4 mps 753 mmHg 65%
16:00 +20°C° 0.1 mm 4 mps 753 mmHg 66%
17:00 +19°C° 0.1 mm 3 mps 753 mmHg 71%
18:00 +18°C° 0.1 mm 3 mps 753 mmHg 75%
19:00 +17°C° 0.1 mm 2 mps 753 mmHg 80%
20:00 +16°C° 0 mm 2 mps 753 mmHg 83%
21:00 +15°C° 0 mm 2 mps 753 mmHg 85%
22:00 +14°C° 0 mm 2 mps 753 mmHg 87%
23:00 +14°C° 0 mm 2 mps 753 mmHg 88%
Show more